EW9267 Weather Reports


time (UTC)temp
F
wind
direction
speed
knots
gust
knots
rain 1hr
in
rain 24hr
in
rain mn
in
humidity
%
barometer
mb
20240723053055 67 200 0.0 0.0 0.00 0.00 0.33 97 1018.1
20240723051554 67 200 0.0 0.0 0.00 0.00 0.32 97 1018.0
20240723050056 67 201 0.0 0.0 0.00 0.00 0.24 97 1018.2
20240723044552 67 200 0.0 0.0 0.00 0.00 0.13 97 1018.6
20240723043050 67 200 0.0 0.0 0.00 0.00 0.01 97 1018.2
20240723041548 66 200 0.0 0.0 0.00 0.00 0.00 97 1017.9
20240723040047 66 200 0.0 0.0 0.00 0.00 0.00 97 1017.7
20240723034550 66 200 0.0 0.0 0.00 0.00 0.00 96 1017.6
20240723033045 66 200 0.0 0.0 0.00 0.00 0.00 96 1017.4
20240723031546 67 200 0.0 0.0 0.00 0.00 0.00 96 1017.6
20240723030044 67 200 0.0 0.0 0.00 0.00 0.00 96 1017.5
20240723024545 67 200 0.0 0.0 0.00 0.00 0.00 96 1017.6
20240723023056 68 200 0.0 0.0 0.00 0.00 0.00 96 1017.8
20240723021542 68 200 0.0 0.0 0.00 0.00 0.00 96 1017.7
20240723020053 68 200 0.0 0.0 0.00 0.00 0.00 96 1017.7
20240723014544 68 200 0.0 0.0 0.00 0.00 0.00 96 1017.4
20240723013047 68 200 0.0 0.0 0.00 0.00 0.00 96 1017.0
20240723011546 68 200 0.0 0.0 0.00 0.00 0.00 96 1016.9
20240723010041 69 200 0.0 0.0 0.00 0.00 0.00 95 1016.5
20240723004543 69 200 0.0 0.0 0.00 0.00 0.00 95 1016.0
20240723003048 69 200 0.0 0.0 0.00 0.00 0.00 93 1016.2
20240723001539 70 200 0.0 0.0 0.00 0.00 0.00 91 1016.3
20240723000038 71 200 0.0 0.0 0.00 0.00 0.00 88 1016.4
20240722234553 72 200 0.0 0.0 0.00 0.00 0.00 88 1016.4
20240722233037 73 200 0.0 0.0 0.00 0.00 0.00 91 1016.2
20240722231536 73 200 0.0 0.0 0.00 0.00 0.00 88 1015.8
20240722230039 74 200 0.0 0.0 0.00 0.00 0.00 87 1015.6
20240722224535 74 200 0.0 0.0 0.00 0.00 0.00 83 1015.5
20240722223035 75 200 0.0 0.0 0.00 0.00 0.00 83 1015.3
20240722221535 76 200 0.0 0.0 0.00 0.00 0.00 82 1014.9
20240722220047 76 200 0.0 0.0 0.00 0.00 0.00 80 1015.0
20240722214548 77 200 0.0 0.0 0.00 0.00 0.00 78 1015.1
20240722213033 78 200 0.0 0.0 0.00 0.00 0.00 76 1015.0
20240722211535 79 200 0.0 0.0 0.00 0.00 0.00 78 1015.0
20240722210034 78 200 0.0 0.0 0.00 0.00 0.00 77 1015.0
20240722204531 78 200 0.0 0.0 0.00 0.00 0.00 81 1015.0
20240722203027 76 200 0.0 0.0 0.00 0.00 0.00 87 1015.5
20240722201522 74 200 0.0 0.0 0.00 0.00 0.00 90 1015.8
20240722200022 74 200 0.0 0.0 0.00 0.00 0.00 91 1015.9
20240722194520 74 200 0.0 0.0 0.00 0.00 0.00 91 1015.7
20240722193018 74 200 0.0 0.0 0.00 0.00 0.00 90 1015.9
20240722191523 74 200 0.0 0.0 0.00 0.00 0.00 88 1015.9
20240722190023 75 200 0.0 0.0 0.00 0.00 0.00 87 1016.0
20240722184517 74 121 0.0 0.0 0.00 0.00 0.00 89 1016.1
20240722183017 75 88 0.0 0.0 0.00 0.00 0.00 89 1016.5
20240722181515 75 109 0.9 0.0 0.00 0.00 0.00 86 1016.5
20240722180028 77 70 0.0 0.0 0.00 0.00 0.00 83 1016.5
20240722174516 76 201 0.0 0.0 0.00 0.00 0.00 85 1016.6
20240722173016 76 201 0.0 0.0 0.00 0.00 0.00 85 1016.7
20240722171518 77 201 0.0 0.0 0.00 0.00 0.00 85 1016.9
20240722170012 76 201 0.9 0.0 0.00 0.00 0.00 85 1016.9
20240722164510 75 201 0.0 0.0 0.00 0.00 0.00 87 1017.0
20240722163007 75 201 0.0 0.0 0.00 0.00 0.00 91 1017.2
20240722161505 73 201 0.0 0.0 0.00 0.00 0.00 92 1017.4
20240722160002 73 201 0.0 0.0 0.00 0.00 0.00 92 1017.5
20240722154608 72 201 0.0 0.0 0.00 0.00 0.00 93 1017.5
20240722153100 72 200 0.0 0.0 0.00 0.00 0.00 94 1017.5
20240722151602 71 200 0.0 0.0 0.00 0.00 0.00 95 1017.4
20240722150054 70 200 0.0 0.0 0.00 0.00 0.00 96 1017.4
20240722144553 70 200 0.0 0.0 0.00 0.00 0.00 97 1017.4
20240722143054 70 200 0.0 0.0 0.00 0.00 0.00 98 1017.3
20240722141552 69 200 0.0 0.0 0.00 0.00 0.00 98 1017.1
20240722140049 69 200 0.0 0.0 0.00 0.00 0.00 98 1017.1
20240722134549 68 200 0.0 0.0 0.00 0.00 0.00 98 1017.4
20240722133044 68 200 0.0 0.0 0.00 0.00 0.00 98 1017.5
20240722131544 68 200 0.0 0.0 0.00 0.00 0.00 98 1017.5
20240722130042 67 200 0.0 0.0 0.00 0.00 0.00 98 1017.3
20240722124549 67 200 0.0 0.0 0.00 0.00 0.00 98 1017.2
20240722123044 66 200 0.0 0.0 0.00 0.00 0.00 98 1017.1
20240722121555 66 200 0.0 0.0 0.00 0.00 0.00 98 1017.1
20240722120042 65 200 0.0 0.0 0.00 0.00 0.00 98 1016.9
20240722114535 65 200 0.0 0.0 0.00 0.00 0.00 98 1016.8
20240722113034 65 200 0.0 0.0 0.00 0.00 0.00 98 1016.7
20240722111534 65 200 0.0 0.0 0.00 0.00 0.00 98 1016.9
20240722110032 65 200 0.0 0.0 0.00 0.00 0.00 98 1016.8
20240722104531 65 200 0.0 0.0 0.00 0.00 0.00 98 1016.8
20240722103031 64 200 0.0 0.0 0.00 0.00 0.00 98 1016.9
20240722101532 64 200 0.0 0.0 0.00 0.00 0.00 98 1016.9
20240722100029 64 200 0.0 0.0 0.00 0.00 0.00 98 1016.6
20240722094529 64 200 0.0 0.0 0.00 0.00 0.00 98 1016.2
20240722093041 64 200 0.0 0.0 0.00 0.00 0.00 98 1016.1
20240722091528 64 200 0.0 0.0 0.00 0.00 0.00 98 1016.0
20240722090028 64 200 0.0 0.0 0.00 0.00 0.00 98 1016.0
20240722084538 64 200 0.0 0.0 0.00 0.00 0.00 98 1015.9
20240722083025 64 200 0.0 0.0 0.00 0.00 0.00 98 1016.1
20240722081523 64 200 0.0 0.0 0.00 0.00 0.00 98 1016.2
20240722080023 64 200 0.0 0.0 0.00 0.00 0.00 98 1016.2
20240722074525 65 200 0.0 0.0 0.00 0.00 0.00 98 1016.3
20240722073023 64 200 0.0 0.0 0.00 0.00 0.00 98 1016.5
20240722071524 64 200 0.0 0.0 0.00 0.00 0.00 98 1016.5
20240722070025 64 200 0.0 0.0 0.00 0.00 0.00 98 1016.9
20240722064527 64 200 0.0 0.0 0.00 0.00 0.00 98 1016.8
20240722063048 64 200 0.0 0.0 0.00 0.00 0.00 98 1016.9
20240722061524 64 200 0.0 0.0 0.00 0.00 0.00 98 1016.7
20240722060015 64 200 0.0 0.0 0.00 0.00 0.00 98 1016.8
20240722054516 64 200 0.0 0.0 0.00 0.00 0.00 98 1017.0